Tracking 30922 objects as of 1-Jul-2025
HD Live streaming from Space Station
objects crossing your sky now

YAOGAN-40 01B

Track YAOGAN-40 01B now!
10-day predictions


NORAD ID: 57832
Int'l Code: 2023-139C
Perigee: 857.1 km
Apogee: 859.9 km
Inclination: 86.0 °
Period: 102.0 minutes
Semi major axis: 7229 km
RCS: Unknown
Launch date: September 10, 2023
Source: People's Republic of China (PRC)
Launch site: Taiyaun Space Center, China (TSC)
Your satellite tracking list
Your tracking list is empty




NASA's NSSDC Master Catalog

Two Line Element Set (TLE):
1 57832U 23139C   25181.90309573  .00000111  00000-0  49780-4 0  9991
2 57832  85.9898  57.5633 0001907  91.1403 268.9998 14.12351845 93128
Source of the keplerian elements: AFSPC